Location: Devargunta
(16.7631°N, 80.9077°E)
Time: 19:47:40
(UTC+00:00)

USA 308 - Pass Details

Date: 19 January 2021
Orbit: 568 x 578 km, 54.0° (Epoch: 02 March)

Event Time Altitude Azimuth Distance (km) Brightness Sun altitude
Rises 23:36:56 0° 203° (SSW) 2,753 6.3 -21.8°
Reaches altitude 10° 23:39:15 10° 197° (SSW) 1,856 5.5 -21.2°
Maximum altitude 23:43:17 46° 123° (ESE) 765 3.9 -20.3°
Drops below altitude 10° 23:47:20 10° 50° (NE) 1,856 5.9 -19.4°
Sets 23:49:38 0° 44° (NE) 2,753 6.8 -18.9°
